[[{"header":{"parameterUnit":"m.s-1","parameterCategory":1,"la1":30.2991,"la2":30.254,"lo1":-89.0895,"lo2":-89.0444,"dy":0.0017,"dx":0.0017,"nx":28,"ny":28,"refTime":"2024-07-13T03:00:00:Z","depth":0,"parameterNumber":2,"parameterNumberName":"U-component_of_WINDS"},"data":[0,0,0,0,0,0,0,0,0,0,0,0,0,0,0,0,0,0,0,0,0,0,0,0,0,0,0,0,0,0,0,0,0,0,0,0,0,0,0,0,0,0,0,0,0,0,0,0,0,0,0,0,0,0,0,0,0,0,1.6919,1.692,0,1.7014,1.7015,1.7016,1.6983,1.6981,1.6979,1.6977,1.7077,1.7082,1.7086,0,0,0,0,0,0,0,0,0,0,0,0,0,1.6712,1.6716,1.6919,1.692,1.6921,1.7013,1.7015,1.7016,1.6983,1.6981,1.6978,1.6976,1.7076,1.7081,1.7087,0,0,0,0,0,0,0,0,0,0,0,0,0,1.6804,1.6718,1.6919,1.6916,1.6917,1.7013,1.7015,1.7016,1.6984,1.6981,1.6977,1.6975,1.7074,1.7081,1.7087,1.7193,0,0,1.7109,1.7112,0,0,0,0,0,0,0,0,1.6799,1.6812,1.6915,1.6916,1.6917,1.6983,1.6979,1.7076,1.6985,1.6958,1.6977,1.6973,1.7049,1.7057,1.7082,1.7198,1.7202,1.7109,1.7114,1.7117,1.7118,0,0,0,0,0,0,0,1.6793,1.6808,1.6956,1.6917,1.6918,1.6911,1.692,1.6997,1.702,1.696,1.6958,1.697,1.7049,1.7076,1.7084,1.7204,1.7109,1.7115,1.712,1.7122,1.7411,1.7414,0,0,0,0,0,0,1.6785,1.6802,1.6953,1.6959,1.6849,1.6917,1.6928,1.6965,1.7019,1.7024,1.6972,1.6968,1.7065,1.7076,1.7088,1.7215,1.7116,1.7123,1.7127,1.7407,1.7411,1.7415,0,0,0,0,0,0,1.6781,1.6799,1.695,1.688,1.6899,1.6924,1.6966,1.6969,1.6996,1.7028,1.7032,1.6995,1.7063,1.7078,1.7167,1.7218,1.7126,1.7132,1.7403,1.7408,1.7413,1.747,0,0,0,0,0,0,1.6775,1.6798,1.6838,1.6881,1.6903,1.7027,1.6969,1.6973,1.7007,1.7002,1.7051,1.7056,1.7062,1.7157,1.7174,1.7226,1.7138,1.7399,1.7405,1.7412,1.7464,1.7477,1.7488,0,0,0,0,0,1.6768,1.6851,1.684,1.6858,1.6953,1.703,1.7042,1.7046,1.7012,1.7052,1.7073,1.7055,1.7209,1.7166,1.7185,1.724,1.7395,1.7404,1.7411,1.7459,1.7474,1.7488,0,0,0,0,0,0,1.6814,1.6857,1.6845,1.6944,1.6983,1.7024,1.7075,1.7063,1.7113,1.7107,1.711,1.7122,1.7213,1.7235,1.7186,1.7345,1.7297,1.7309,1.7327,1.7342,1.7354,1.7347,1.7144,0,0,0,0,0,1.6836,1.6893,1.6928,1.7012,1.7032,1.705,1.7084,1.7084,1.7125,1.7141,1.7169,1.721,1.7268,1.7306,1.7362,1.7467,1.7477,1.7514,1.7526,1.7535,1.7546,1.7603,1.7619,1.7441,1.7441,1.7441,0,0,1.6881,1.6911,1.6948,1.7022,1.7052,1.7113,1.7065,1.7131,1.7176,1.7152,1.7237,1.7259,1.7305,1.7402,1.7447,1.7424,1.7597,1.7545,1.7553,1.7558,1.7612,1.7629,1.7644,1.7446,1.7445,1.7445,0,0,1.6995,1.7023,1.7097,1.7127,1.7173,1.7185,1.7202,1.7245,1.7258,1.7343,1.7326,1.738,1.748,1.7513,1.7543,1.7669,1.7653,1.7687,1.7749,1.7804,1.7818,1.7831,1.7875,1.7891,1.7697,1.7697,1.7697,0,1.7046,1.7135,1.7136,1.7203,1.7236,1.7216,1.729,1.7321,1.7383,1.7407,1.738,1.7504,1.7534,1.7638,1.7669,1.7694,1.7714,1.7681,1.7816,1.7829,1.784,1.7883,1.7899,1.7701,1.77,1.77,1.7699,0,1.7196,1.7258,1.7312,1.737,1.741,1.748,1.7492,1.7532,1.7528,1.7542,1.7629,1.7664,1.7726,1.7751,1.7748,1.7855,1.7839,1.7814,1.7767,1.7861,1.7901,1.7917,1.7706,1.7705,1.7704,1.7703,0,0,1.7342,1.7399,1.7419,1.7445,1.7494,1.7542,1.7612,1.7671,1.7705,1.7748,1.7807,1.7891,1.7868,1.7902,1.7903,1.7951,1.8048,1.792,1.7922,1.7943,1.8167,1.8186,1.8204,1.8038,1.8041,1.8043,1.8163,0,1.7459,1.758,1.7583,1.7694,1.7752,1.7733,1.7793,1.783,1.7845,1.7896,1.7913,1.7973,1.7938,1.7958,1.8006,1.8026,1.8093,1.8017,1.8093,1.8095,1.8082,1.8225,1.8245,1.8357,1.8179,1.8182,1.8183,0,1.7613,1.7659,1.7776,1.7815,1.784,1.7894,1.7948,1.7997,1.8038,1.8046,1.8083,1.8077,1.8148,1.8098,1.8196,1.8145,1.8176,1.819,1.8195,1.8202,1.8145,1.8237,1.8393,1.8409,1.8208,1.8206,1.8204,0,1.7707,1.78,1.7881,1.7904,1.7952,1.7991,1.8013,1.8051,1.8086,1.8133,1.8155,1.8211,1.8241,1.8285,1.8293,1.8256,1.8392,1.8342,1.84,1.84,1.843,1.8428,1.8593,1.845,1.845,1.845,1.8449,0,1.7838,1.7911,1.7924,1.7974,1.8054,1.8057,1.8136,1.8155,1.8189,1.8243,1.823,1.8281,1.8289,1.8342,1.835,1.843,1.8444,1.8452,1.8453,1.8454,1.8453,1.8474,1.8467,1.8454,1.8453,1.8452,1.8452,0,1.7958,1.797,1.8057,1.8095,1.8106,1.8164,1.8197,1.8245,1.8258,1.8326,1.8343,1.8364,1.8425,1.8438,1.8511,1.8516,1.8611,1.8605,1.8597,1.8597,1.8654,1.8648,1.8839,1.8864,1.8704,1.8706,1.8707,0,1.8041,1.8096,1.8139,1.8173,1.8197,1.8253,1.8288,1.8293,1.833,1.838,1.8422,1.8482,1.853,1.863,1.8652,1.8708,1.8703,1.8766,1.8711,1.8709,1.8704,1.87,1.8705,1.8776,1.8778,1.8779,1.8781,0,1.8186,1.8189,1.824,1.8293,1.8334,1.8376,1.8416,1.8446,1.8455,1.8498,1.856,1.8597,1.8671,1.8731,1.8786,1.881,1.8797,1.8797,1.8814,1.8815,1.8808,1.8812,1.8626,1.8793,1.8792,1.8791,1.879,1.879,1.829,1.8338,1.8375,1.8432,1.8462,1.8499,1.8546,1.8564,1.8616,1.8676,1.8675,1.8743,1.8783,1.8856,1.8882,1.8936,1.8916,1.894,1.8946,1.8952,1.8957,1.8799,1.8946,1.8946,1.8945,1.8945,1.8945,0,1.8435,1.8458,1.851,1.8565,1.861,1.8592,1.8635,1.8674,1.8734,1.8771,1.8818,1.8889,1.8947,1.8973,1.903,1.9068,1.9063,1.9082,1.908,1.9085,1.8971,1.8951,1.9085,1.9085,1.9085,1.9085,1.9085,1.9085,1.8515,1.8595,1.8602,1.8696,1.8718,1.8784,1.881,1.8844,1.8874,1.8953,1.9001,1.9017,1.905,1.9109,1.9161,1.9167,1.9188,1.921,1.9214,1.9107,1.9093,1.908,1.9061,1.9215,1.9215,1.9323,1.9324,1.9325]},{"header":{"parameterUnit":"m.s-1","parameterCategory":1,"la1":30.2991,"la2":30.254,"lo1":-89.0895,"lo2":-89.0444,"dy":0.0017,"dx":0.0017,"nx":28,"ny":28,"refTime":"2024-07-13T03:00:00:Z","depth":0,"parameterNumber":3,"parameterNumberName":"V-component_of_WINDS"},"data":[0,0,0,0,0,0,0,0,0,0,0,0,0,0,0,0,0,0,0,0,0,0,0,0,0,0,0,0,0,0,0,0,0,0,0,0,0,0,0,0,0,0,0,0,0,0,0,0,0,0,0,0,0,0,0,0,0,0,2.4416,2.4417,0,2.4508,2.4509,2.4511,2.4556,2.4556,2.4556,2.4556,2.4645,2.4648,2.465,0,0,0,0,0,0,0,0,0,0,0,0,0,2.4274,2.4276,2.4416,2.4418,2.4419,2.4508,2.451,2.4511,2.4556,2.4556,2.4556,2.4556,2.4645,2.4647,2.465,0,0,0,0,0,0,0,0,0,0,0,0,0,2.4348,2.4277,2.4416,2.4452,2.4456,2.4508,2.451,2.4511,2.4556,2.4556,2.4556,2.4556,2.4644,2.4647,2.4651,2.4672,0,0,2.4661,2.4663,0,0,0,0,0,0,0,0,2.4343,2.4353,2.4446,2.445,2.4455,2.4521,2.4492,2.4565,2.4556,2.4518,2.4556,2.4556,2.4604,2.461,2.4628,2.4676,2.468,2.4662,2.4664,2.4665,2.4666,0,0,0,0,0,0,0,2.4338,2.4349,2.4453,2.4447,2.4452,2.4462,2.4472,2.4506,2.4559,2.4521,2.4525,2.4535,2.4606,2.4624,2.463,2.4681,2.4662,2.4665,2.4667,2.4668,2.475,2.475,0,0,0,0,0,0,2.4328,2.4344,2.445,2.4455,2.4398,2.4464,2.4476,2.4499,2.4559,2.4568,2.4535,2.4537,2.4618,2.4626,2.4633,2.4661,2.4665,2.4669,2.4671,2.475,2.475,2.475,0,0,0,0,0,0,2.4325,2.4337,2.4446,2.4401,2.4416,2.4467,2.4493,2.4501,2.4519,2.457,2.4579,2.4544,2.4618,2.4628,2.4662,2.4665,2.467,2.4674,2.475,2.475,2.475,2.4718,0,0,0,0,0,0,2.432,2.4336,2.4346,2.4401,2.4418,2.4475,2.4493,2.4503,2.4526,2.4529,2.4581,2.4589,2.4619,2.4656,2.4665,2.467,2.4676,2.475,2.475,2.475,2.4719,2.4717,2.4715,0,0,0,0,0,2.4315,2.4333,2.4346,2.4359,2.4432,2.4475,2.4485,2.452,2.4526,2.4536,2.4568,2.4588,2.4663,2.4659,2.467,2.4676,2.475,2.475,2.475,2.472,2.4717,2.4715,0,0,0,0,0,0,2.4275,2.4341,2.4356,2.4392,2.4428,2.4483,2.4496,2.4517,2.455,2.4552,2.4592,2.4604,2.4633,2.4658,2.4653,2.4698,2.4708,2.471,2.4682,2.468,2.4678,2.4671,2.4679,0,0,0,0,0,2.4271,2.4302,2.4357,2.4383,2.44,2.4445,2.4465,2.4489,2.4527,2.4542,2.4577,2.4611,2.4642,2.4662,2.4694,2.4722,2.4733,2.4731,2.4729,2.4727,2.4729,2.4744,2.4743,2.475,2.475,2.475,0,0,2.4262,2.4301,2.4318,2.4376,2.4407,2.4436,2.4457,2.4488,2.451,2.4546,2.4581,2.4607,2.4648,2.4678,2.4693,2.47,2.4729,2.4727,2.4726,2.4728,2.4744,2.4743,2.4742,2.475,2.475,2.475,0,0,2.4261,2.4294,2.4319,2.4349,2.4395,2.4425,2.443,2.4482,2.4501,2.4536,2.4564,2.4589,2.4642,2.467,2.4691,2.4698,2.4716,2.4707,2.4697,2.4711,2.471,2.471,2.4711,2.4711,2.4708,2.4708,2.4708,0,2.4243,2.4291,2.4329,2.4359,2.4382,2.4417,2.4441,2.4468,2.4521,2.4536,2.4542,2.4609,2.4639,2.4676,2.4678,2.4694,2.47,2.4701,2.4708,2.4708,2.4708,2.4709,2.471,2.4706,2.4706,2.4706,2.4707,0,2.4266,2.4299,2.4313,2.4365,2.439,2.4417,2.4457,2.4477,2.4498,2.4526,2.456,2.4597,2.4636,2.4646,2.4667,2.4685,2.4688,2.47,2.4711,2.4705,2.4707,2.4708,2.4704,2.4705,2.4705,2.4705,0,0,2.4245,2.4316,2.4321,2.4344,2.4396,2.4421,2.4447,2.4487,2.4503,2.4538,2.456,2.4604,2.4615,2.4639,2.4662,2.4675,2.4676,2.4686,2.4687,2.4682,2.4697,2.4687,2.4687,2.4688,2.4689,2.4689,2.4693,0,2.425,2.4302,2.4337,2.4374,2.4403,2.4435,2.4458,2.4491,2.4517,2.4544,2.4572,2.4602,2.4615,2.463,2.4643,2.4673,2.4679,2.4673,2.4708,2.4709,2.4697,2.4688,2.4679,2.4681,2.4694,2.4694,2.4694,0,2.4265,2.43,2.434,2.4388,2.4401,2.4422,2.446,2.4485,2.4522,2.454,2.4566,2.4589,2.4617,2.4624,2.4661,2.4656,2.4672,2.4688,2.4689,2.4693,2.4701,2.4692,2.4683,2.4683,2.4696,2.4696,2.4696,0,2.4244,2.43,2.4332,2.4351,2.4407,2.442,2.4444,2.4482,2.4502,2.4534,2.4548,2.4582,2.4601,2.4626,2.4657,2.466,2.469,2.4701,2.4704,2.4703,2.4709,2.4709,2.4702,2.472,2.472,2.4719,2.4719,0,2.4247,2.427,2.4323,2.4343,2.4369,2.4406,2.443,2.4456,2.4489,2.4512,2.4541,2.4562,2.4602,2.4627,2.4651,2.4677,2.4685,2.4699,2.4705,2.4697,2.4695,2.4708,2.4708,2.472,2.472,2.472,2.472,0,2.4229,2.4265,2.4301,2.4351,2.4364,2.4381,2.4423,2.4442,2.4468,2.4497,2.4506,2.4547,2.4578,2.4612,2.4653,2.4669,2.4693,2.4702,2.4681,2.4685,2.4686,2.4685,2.4687,2.4689,2.4705,2.4705,2.4705,0,2.4228,2.4247,2.4299,2.4317,2.4341,2.437,2.4391,2.4427,2.4448,2.4491,2.4503,2.4536,2.4565,2.4611,2.4644,2.4675,2.4685,2.4683,2.469,2.468,2.4684,2.4683,2.4684,2.4681,2.4681,2.4681,2.4681,0,2.4224,2.424,2.4271,2.4308,2.4333,2.4363,2.4394,2.4406,2.4448,2.4469,2.4502,2.4524,2.4566,2.4597,2.4632,2.4654,2.4674,2.4678,2.468,2.4672,2.4659,2.4665,2.4676,2.4678,2.4678,2.4679,2.4679,2.4679,2.4214,2.4232,2.4271,2.4303,2.4331,2.4358,2.4378,2.4407,2.4435,2.4473,2.4492,2.4524,2.4557,2.4607,2.4628,2.4651,2.4658,2.4661,2.4662,2.4662,2.4659,2.4655,2.4658,2.4658,2.4658,2.4658,2.4658,0,2.4211,2.4237,2.4267,2.4309,2.4334,2.4351,2.4386,2.4405,2.4433,2.4463,2.4491,2.4526,2.4556,2.459,2.4622,2.4634,2.4644,2.4641,2.4641,2.4645,2.4653,2.4647,2.4633,2.4633,2.4633,2.4633,2.4633,2.4633,2.4212,2.4242,2.4263,2.4306,2.4332,2.4364,2.4382,2.4406,2.4431,2.447,2.4496,2.4518,2.4549,2.4583,2.4611,2.462,2.463,2.4625,2.4636,2.4642,2.4645,2.4647,2.4642,2.4627,2.4626,2.4626,2.4626,2.4626]}]]